User: anonymous   Login
Location: Unspecified
(0.0000°N, 0.0000°E)
Time: 08:01:51
(UTC+00:00)
Language:

PLEIADES 1B - Orbit

View from above orbital plane
View from above orbital plane
View from above satellite
View from above satellite

Ground track
Ground track

The orbit data is extracted from the following two-line orbital elements,

1 39019U 12068A   16121.80735858  .00000075  00000-0  26014-4 0  9993
2 39019  98.2041 196.7702 0001411  81.0147 279.1200 14.58541893181603
Epoch (UTC): 30 April 2016 19:22:35
Eccentricity: 0.0001411
inclination: 98.2041°
perigee height: 697 km
apogee height: 699 km
right ascension of ascending node: 196.7702°
argument of perigee: 81.0147°
revolutions per day: 14.58541893
mean anomaly at epoch: 279.1200°
orbit number at epoch: 18160

The dashed part of the orbit path shows where the satellite is in the earth's shadow,  

DLR